sat.trackr.live / text

‹ back to catalog

ARCSTONE

NORAD 64540 · 2025-135N

PAYLOAD ACTIVE UNKNOWN

§ Identity

Operator
Country
US
Launch date
2025-06-23
Launch site
AFWTR
Launch vehicle
Mass (kg)
RCS (m²)

External: N2YO · Heavens-Above · Gunter

§ Orbital elements

Epoch: 2026-09-21T20:01:13.901088Z

Period
93.76 min
Inclination
97.4692°
Eccentricity
0.0002663
Mean motion
15.35855171 rev/d
Perigee alt
456.6 km
Apogee alt
460.2 km
Semi-major
6,836.5 km
B*
4.2628e-4
RAAN
23.4254°
Arg perigee
183.2344°
Mean anomaly
176.8883°
Rev number
6,985

§ Raw data

ARCSTONE1 64540U 25135N   26264.83418867  .00014804  00000+0  42628-3 0  99912 64540  97.4692  23.4254 0002663 183.2344 176.8883 15.35855171 69850

JSON: /api/v1/satellites/64540 · /tle

For live sub-satellite position, see the globe view (requires WebGL).

§ Visibility from observer

Set your observer location to see the next 7 days of passes ≥ 10°. The values pass through the URL so the page stays shareable.

No JS? Fill the form by hand. The geolocation button needs JavaScript.

§ Radio — SatNOGS DB

ModeDescriptionDownlinkUplink
FM Mode S - Transmitter 2.203 GHz

1 transmitter · refreshed weekly from db.satnogs.org